Flag for Uruguay

Past Weather in Maldonado, Uruguay — Yesterday and Last 2 Weeks

Now
48 °F

Passing clouds.


Feels Like: 47 °F
Forecast: 53 / 45 °F
Wind: 3 mph from West

Location: Capitan Corbeta

Current Time: Jul 6, 2020 at 12:41:13 am

Latest Report: Jul 6, 2020 at 12:00 am


Visibility: N/A

Pressure: 30.12 "Hg

Humidity: 87%

Dew Point: 45 °F

Location of MaldonadoLocation

Past Weather in Maldonado — Graph

°F

Maldonado Temperature Yesterday

Maximum temperature yesterday: 54 °F (at 11:00 am)
Minimum temperature yesterday: 46 °F (at 1:00 am)
Average temperature yesterday: 51 °F

High & Low Weather Summary for the Past Weeks

 TemperatureHumidityPressure
High66 °F (Jun 23, 12:00 pm)100% (Jun 21, 2:00 am)30.27 "Hg (Jun 21, 2:00 am)
Low39 °F (Jun 27, 3:00 am)58% (Jun 26, 2:00 pm)29.53 "Hg (Jun 30, 4:00 pm)
Average52 °F87%29.94 "Hg
* Reported Jun 20 11:00 pm — Jul 5 11:00 pm, Maldonado. Weather by CustomWeather, © 2020

Note: Actual official high and low records may vary slightly from our data, if they occured in-between our weather recording intervals... More about our weather records

Maldonado Weather History for the Previous 24 Hours

Scroll right to see more
 ConditionsComfort  
Time TempWeatherWind HumidityBarometerVisibility
11:00 pm
Sun, Jul 5
52 °FPassing clouds.7 mph72%30.12 "HgN/A
10:00 pm50 °FPassing clouds.10 mph76%30.09 "HgN/A
9:00 pm50 °FPassing clouds.8 mph82%30.09 "HgN/A
8:00 pm50 °FPassing clouds.7 mph82%30.04 "HgN/A
7:00 pm50 °FPassing clouds.9 mph88%30.04 "HgN/A
6:00 pm50 °FPartly cloudy.7 mph88%30.01 "HgN/A
5:00 pm52 °FPartly sunny.10 mph82%29.98 "HgN/A
4:00 pm50 °FPartly sunny.10 mph94%29.95 "HgN/A
3:00 pm54 °FLight rain. Partly sunny.9 mph77%29.95 "HgN/A
2:00 pm54 °FPartly sunny.12 mph77%29.98 "HgN/A
1:00 pm54 °FPartly sunny.9 mph77%29.98 "HgN/A
12:00 pm54 °FBroken clouds.10 mph77%29.95 "HgN/A
11:00 am54 °FScattered clouds.13 mph72%29.95 "HgN/A
10:00 am52 °FBroken clouds.18 mph82%29.95 "HgN/A
9:00 am52 °FMostly cloudy.15 mph82%29.95 "HgN/A
8:00 am52 °FMostly cloudy.17 mph88%29.89 "HgN/A
7:00 am52 °FPassing clouds.15 mph88%29.89 "HgN/A
6:00 am52 °FClear.8 mph94%29.86 "Hg10 mi
5:00 am52 °FClear.8 mph94%29.86 "Hg10 mi
4:00 am48 °FClear.6 mph94%29.86 "Hg10 mi
3:00 am48 °FClear.2 mph94%29.86 "Hg10 mi
2:00 am48 °FClear.1 mph94%29.86 "Hg10 mi
1:00 am46 °FClear.2 mph87%29.86 "Hg10 mi
12:00 am48 °FClear.3 mph94%29.86 "Hg10 mi
Weather by CustomWeather, © 2020

See weather overview